Volver al catálogo

GONETS-M 24

ActivoComunicacionesPO
NORAD 54151·PAYLOAD·🇷🇺 Russia

Lanzado Oct 22, 2022 desde Vostochny Cosmodrome

Loading…

Próximos Pases (próximas 24 horas)

TLE

ActualizadoSource: Space-Track

Época: Sep 14, 2026, 14:05 UTC

1 54151U 22139B   26257.58725975  .00000028  00000-0  13074-3 0  9991
2 54151  82.4952 291.7431 0017279  41.1328 319.1051 12.42894012176759

Sigue GONETS-M 24 en tiempo real con AllMySat

Download on the App Store